Weather History for Mobile, AL

Change the Weather History Date:

Monday, October 15, 2012

  Actual Average Record
Temperature  
Mean Temperature 72 °F 69 °F  
Max Temperature 84 °F 79 °F 88 °F (1962)
Min Temperature 60 °F 58 °F 41 °F (1987)
Degree Days  
Heating Degree Days 0 1  
Month to date heating degree days 3 11  
Since 1 July heating degree days 3 13  
Cooling Degree Days 7 5  
Month to date cooling degree days 88 99  
Year to date cooling degree days 2642 2403  
Growing Degree Days 23 (Base 50)    
Moisture  
Dew Point 64 °F    
Average Humidity 66    
Maximum Humidity 93    
Minimum Humidity 39    
Precipitation  
Precipitation 0.02 in 0.11 in 5.46 in (1932)
Month to date precipitation 0.05 1.78  
Year to date precipitation 64.05 54.05  
Sea Level Pressure  
Sea Level Pressure 29.98 in    
Wind  
Wind Speed 6 mph (NW)    
Max Wind Speed 15 mph    
Max Gust Speed 20 mph    
Visibility 8 miles    
Events Rain    
T = Trace of Precipitation, MM = Missing Value Source: NWS Daily Summary

Daily Weather History Graph

Daily Weather History Graph

Search for Another Location

Airport:

Trip Planner

Search our weather history database for the weather conditions in past years. The results will help you decide how hot, cold, wet, or windy it might be!

Date:

Astronomy

Oct. 15, 2012 Rise Set
Actual Time 6:55 AM CDT 6:21 PM CDT
Civil Twilight 6:31 AM CDT 6:45 PM CDT
Nautical Twilight 6:03 AM CDT 7:13 PM CDT
Astronomical Twilight 5:35 AM CDT 7:41 PM CDT
Moon 7:01 AM CDT (10/15) 6:26 PM CDT (10/15)
Length of Visible Light 12h 13m
Length of Day
11h 25m
New Moon, 0% of the Moon is Illuminated
Oct 15
New Moon
Oct 21
First Quarter
Oct 29
Full
Nov 6
Last Quarter
Nov 13
New

Hourly Weather History & Observations

Time (CDT) Temp. Heat Index Dew Point Humidity Pressure Visibility Wind Dir Wind Speed Gust Speed Precip Events Conditions
12:56 AM 72.0 °F - 69.1 °F 91% 30.00 in 10.0 mi SW 4.6 mph - N/A   Scattered Clouds
1:56 AM 72.0 °F - 69.1 °F 91% 30.00 in 10.0 mi WSW 3.5 mph - N/A   Mostly Cloudy
2:56 AM 71.1 °F - 69.1 °F 93% 29.98 in 8.0 mi SW 3.5 mph - N/A   Scattered Clouds
3:53 AM 71.6 °F - 69.8 °F 94% 29.97 in 7.0 mi Calm Calm - N/A   Mostly Cloudy
3:56 AM 71.1 °F - 69.1 °F 93% 29.96 in 7.0 mi SW 3.5 mph - N/A   Mostly Cloudy
4:56 AM 71.1 °F - 69.1 °F 93% 29.97 in 5.0 mi Calm Calm - N/A   Overcast
5:22 AM 71.6 °F - 69.8 °F 94% 29.98 in 3.0 mi West 3.5 mph - N/A   Overcast
5:56 AM 71.1 °F - 70.0 °F 96% 29.98 in 3.0 mi West 4.6 mph - 0.01 in Rain Light Rain
6:16 AM 71.6 °F - 69.8 °F 94% 29.99 in 6.0 mi West 4.6 mph - 0.00 in   Mostly Cloudy
6:56 AM 71.1 °F - 69.1 °F 93% 30.00 in 5.0 mi West 4.6 mph - 0.00 in Rain Light Rain
7:56 AM 70.0 °F - 68.0 °F 93% 29.99 in 9.0 mi Calm Calm - 0.01 in   Mostly Cloudy
8:56 AM 73.9 °F - 69.1 °F 85% 30.01 in 10.0 mi NW 5.8 mph - N/A   Scattered Clouds
9:13 AM 73.4 °F - 68.0 °F 83% 30.01 in 7.0 mi North 9.2 mph - N/A   Mostly Cloudy
9:36 AM 75.2 °F - 68.0 °F 78% 30.02 in 7.0 mi North 10.4 mph - N/A   Mostly Cloudy
9:39 AM 75.2 °F - 68.0 °F 78% 30.02 in 7.0 mi North 9.2 mph - N/A   Mostly Cloudy
9:56 AM 77.0 °F - 66.9 °F 71% 30.01 in 10.0 mi North 8.1 mph - N/A   Mostly Cloudy
10:07 AM 77.0 °F - 66.2 °F 69% 30.01 in 10.0 mi NNE 3.5 mph - N/A   Scattered Clouds
10:56 AM 79.0 °F - 66.0 °F 64% 30.00 in 10.0 mi NNW 8.1 mph - N/A   Scattered Clouds
11:56 AM 81.0 °F 82.5 °F 64.0 °F 56% 29.98 in 10.0 mi North 9.2 mph - N/A   Scattered Clouds
12:56 PM 82.9 °F 84.0 °F 63.0 °F 51% 29.96 in 10.0 mi North 12.7 mph - N/A   Scattered Clouds
1:56 PM 84.0 °F 84.4 °F 61.0 °F 46% 29.93 in 10.0 mi NW 9.2 mph - N/A   Scattered Clouds
2:56 PM 82.9 °F 82.6 °F 57.9 °F 42% 29.91 in 10.0 mi NNW 10.4 mph - N/A   Scattered Clouds
3:56 PM 82.9 °F 82.0 °F 55.0 °F 38% 29.91 in 10.0 mi NNW 11.5 mph - N/A   Scattered Clouds
4:56 PM 80.1 °F 80.0 °F 54.0 °F 40% 29.92 in 10.0 mi NNW 6.9 mph - N/A   Scattered Clouds
5:56 PM 77.0 °F - 57.2 °F 50% 29.93 in 10.0 mi North 5.8 mph - N/A   Scattered Clouds
6:56 PM 75.2 °F - 57.2 °F 53% 29.93 in 10.0 mi North 4.6 mph - N/A   Partly Cloudy
7:56 PM 73.4 °F - 62.6 °F 69% 29.95 in 9.0 mi North 3.5 mph - N/A   Partly Cloudy
8:56 PM 68.0 °F - 57.2 °F 68% 29.95 in 10.0 mi NNW 3.5 mph - N/A   Clear
9:56 PM 62.1 °F - 53.1 °F 72% 29.98 in 10.0 mi North 4.6 mph - N/A   Clear
10:56 PM 63.0 °F - 51.1 °F 65% 29.98 in 10.0 mi North 6.9 mph - N/A   Clear
11:56 PM 62.1 °F - 50.0 °F 65% 29.99 in 10.0 mi North 6.9 mph - N/A   Clear